Regional Weather Roundup
Issued by NWS Charleston, SC

Current Version | Previous Version | Graphics & Text | Print | Product List | Glossary On
Versions: 1 2 3 4 5 6 7 8 9 10 11 12 13 14 15 16 17 18 19 20 21 22 23 24 25 26 27 28 29 30 31 32 33 34 35 36 37 38 39 40 41 42 43 44 45 46 47 48 49 50
000
ASUS42 KCHS 221225
RWRCHS

REGIONAL WEATHER ROUNDUP
NATIONAL WEATHER SERVICE CHARLESTON SC
700 AM EST MON DEC 22 2014

NOTE: "FAIR" INDICATES FEW OR NO CLOUDS BELOW 12,000 FEET WITH NO
SIGNIFICANT WEATHER AND/OR OBSTRUCTIONS TO VISIBILITY.

NOT ALL STATIONS ARE QUALITY CONTROLLED BY THE NATIONAL
WEATHER SERVICE. USE DATA WITH CAUTION...ESPECIALLY
DEWPOINT OBSERVATIONS.

SCZ027-030-031-034>040-042>050-221300-
...SOUTHEAST SOUTH CAROLINA...

CITY           SKY/WX    TMP DP  RH WIND       PRES   REMARKS
N CHARLESTON   CLOUDY    46  45  96 N7        30.07R FOG
6HR MIN TEMP:  46; 6HR MAX TEMP:  47; 6HR PCP: TRACE;

WATERFRONT PRK NOT AVBL
MOUNT PLEASANT FOG       46  46 100 N6        30.06R VSB 3/4
PINOPOLIS        N/A     46  43  87 NE9       29.99R
MONCKS CORNER  CLOUDY    46  43  87 N3        30.08R
SUMMERVILLE    CLOUDY    45  45 100 N7        30.08R
BEAUFORT MCAS  CLOUDY    48  47  96 N8        30.06R FOG
6HR MIN TEMP:  48; 6HR MAX TEMP:  49; 6HR PCP:  0.02;

BEAUFORT ARPT  CLOUDY    46  46 100 N5        30.06R FOG
HILTON HEAD IS CLOUDY    48  48 100 N7        30.06  FOG
WALTERBORO     RAIN      45 N/A N/A NE6       30.08R
ALLENDALE      LGT RAIN  45  45 100 N5G12     30.07R

...SOUTHERN MIDLANDS AND PEE DEE...

CITY           SKY/WX    TMP DP  RH WIND       PRES   REMARKS
GEORGETOWN     NOT AVBL
KINGSTREE      NOT AVBL
ORANGEBURG     LGT RAIN  44  41  89 NE7       30.08R
6HR MIN TEMP:  44; 6HR MAX TEMP:  46; 6HR PCP:  0.14;

BARNWELL       CLOUDY    45  45 100 NE7       30.09R
AIKEN          CLOUDY    43  43 100 NE9       30.10S FOG
MANNING        NOT AVBL
COLUMBIA       CLOUDY    45  42  89 NE8       30.09S
6HR MIN TEMP:  45; 6HR MAX TEMP:  47; 6HR PCP:  0.10;

SUMTER         DRIZZLE   43  41  93 NE9       30.08R
                                      6HR PCP:  0.10;

FLORENCE       RAIN      43  40  89 NE13      30.10R FOG
6HR MIN TEMP:  43; 6HR MAX TEMP:  44; 6HR PCP:  0.20;

MYRTLE BEACH   LGT RAIN  45  43  93 N12       30.07R FOG
N MYRTLE BEACH CLOUDY    45  43  93 N9        30.06R FOG
6HR MIN TEMP:  45; 6HR MAX TEMP:  46; 6HR PCP:  0.02;


$$

GAZ063-065-086>088-099>101-113>116-118-119-134>141-150-221300-
...SOUTHEAST GEORGIA...

CITY           SKY/WX    TMP DP  RH WIND       PRES   REMARKS
SAVANNAH ARPT  FOG       48  47  96 NE6       30.05S VSB 1/2
6HR MIN TEMP:  48; 6HR MAX TEMP:  49; 6HR PCP:  0.01;

HUNTER AAF     CLOUDY    48  48 100 NE5       30.03R FOG
6HR MIN TEMP:  48; 6HR MAX TEMP:  49; 6HR PCP: TRACE;

FORT STEWART   CLOUDY    48  47  96 NE5       30.03R FOG
6HR MIN TEMP:  47; 6HR MAX TEMP:  48; 6HR PCP:  0.01;

STATESBORO     CLOUDY    47  47 100 NE5       30.06R FOG
SYLVANIA       CLOUDY    46  46 100 NE5       30.08R
CLAXTON        CLOUDY    46  46 100 CALM      30.06R FOG

...CSRA...CENTRAL AND FAR SOUTHEAST GEORGIA...

CITY           SKY/WX    TMP DP  RH WIND       PRES   REMARKS
THOMSON        CLOUDY    47  47 100 NE6       30.12S
AUGUSTA-BUSH   CLOUDY    46  44  93 NE7       30.08R FOG
6HR MIN TEMP:  46; 6HR MAX TEMP:  47; 6HR PCP:  0.03;

AUGUSTA-DANIEL CLOUDY    47  45  93 NE8       30.08R FOG
SWAINSBORO     CLOUDY   N/A N/A N/A E5        30.06R HAZE
VIDALIA        CLOUDY    46  46 100 NE7       30.04S FOG
EASTMAN        CLOUDY    48  48 100 NE3       30.05S FOG
HAZLEHURST     FOG       49  49 100 NE5       30.02S VSB 3/4
ALMA           FOG       49  48  97 N5        30.02R VSB 1/2
6HR MIN TEMP:  48; 6HR MAX TEMP:  49; 6HR PCP:  0.01;

WAYCROSS       FOG       53  53 100 E6        30.01S VSB 1/2
JESUP          FOG       52  52 100 CALM      30.04R VSB 1/2
BAXLEY         FOG       50  48  93 NE7       30.01F VSB 1/2
BRUNSWICK      CLOUDY    54  52  94 N3        30.03S
SAINT SIMONS   CLOUDY    55  54  96 N3        30.02R FOG
6HR MIN TEMP:  53; 6HR MAX TEMP:  55; 6HR PCP:  0.02;


$$

SCZ027-028-034-036>038-045-046-048>050-GAZ119-141-221300-
...LAKE AND SUPPLEMENTAL COASTAL OBSERVATIONS...

STATION/POSITION TIME  TEMP    WIND        PRES    WAVE   SWELL
                       AIR SEA DIR/SP/G            HT/PER HT/PER/DIR
                 (UTC) (F)     (DEG/KT/KT) (MB)    (FT/S) (FT/S/D)
UPR LAKE MARION  NOT AVBL
WINYAH BAY       1200   45     340/  4     1017.0S
LAKE MURRAY      1200   44      20/  3/  6 1018.3S
ACE BASIN NERRS  1200   46      20/  2     1017.0S
FORT PULASKI     1200   49 56  330/  8/  9 1017.9R
SAPELO ISLAND    1200   53      20/  5     1017.0S

$$

ANZ835-935-AMZ111-154-330-350-352-354-370-450-454-472-221300-
...C-MAN AND BUOY OBSERVATIONS...

STATION/POSITION TIME  TEMP    WIND        PRES    WAVE   SWELL
                       AIR SEA DIR/SP/G            HT/PER HT/PER/DIR
                 (UTC) (F)     (DEG/KT/KT) (MB)    (FT/S) (FT/S/D)
BUOY 41004       1200   66 73   10/ 12/ 14 1015.6R   6/ 8   5/ 8
BUOY 41008       1200   60 59  120/  4/  6 1016.4R   4/ 8   3/ 70/ 8
FOLLY BEACH CMAN 1200   47     340/  9/ 13 1018.0R
CAPERS NEARSHORE 1100   48      30/ 10/ 14   N/A
FRIPP NEARSHORE  NOT AVBL


STATION/POSITION TIME  TEMP    WIND        PRES    WAVE   SWELL
                       AIR SEA DIR/SP/G            HT/PER HT/PER/DIR
                 (UTC) (F)     (DEG/KT/KT) (MB)    (FT/S) (FT/S/D)
5E ST. MARYS GA  1200      61                N/A     3/ 8
FRYING PAN BUOY  1200   61 70   30/ 14/ 17 1016.4R   7/ 8   5/ 90/ 8
BUOY 41025       1200   65                 1017.2F   8/ 8
CAPE LOOKOUT NC  1200   51     360/ 12/ 16 1016.9S
BUOY 41002       1108   70 72  280/ 10/ 12 1018.3R   5/ 7   5/ 70/ 7
BUOY 41010       1200   73 77  240/  8/ 10 1018.1R   4/ 8   3/ 40/ 8
ST AUGUSTINE FL  1200   64     170/ 10/ 11 1017.5R


$$



USA.gov is the U.S. government's official web portal to all federal, state and local government web resources and services.